Binghamton, NY

7:44 PM EST on November 13, 2019 (GMT -0500)
Binghamton Regional-Link

Weather History for KBGM - September, 2019

Change the Weather History Date:

Tuesday, September 24, 2019

  Actual Average Record
Temperature  
Mean Temperature 58 °F 56 °F  
Max Temperature 65 °F 65 °F 88 °F (2010)
Min Temperature 51 °F 48 °F 25 °F (1974)
Degree Days  
Heating Degree Days 7 9  
Month to date heating degree days 102 132  
Since 1 July heating degree days 139 195  
Cooling Degree Days 0 0  
Month to date cooling degree days 18 29  
Year to date cooling degree days 380 377  
Growing Degree Days 9 (Base 50)    
Moisture  
Dew Point 51 °F    
Average Humidity 75    
Maximum Humidity 93    
Minimum Humidity 56    
Precipitation  
Precipitation T in 0.12 in 1.95 in (2001)
Month to date precipitation 1.66 2.88  
Year to date precipitation 30.45 29.09  
Snow  
Snow 0.00 in 0.00 in 0.00 in (2002)
Month to date snowfall 0.0 0.0  
Since 1 July snowfall 0.0 0.0  
Since 1 September snowfall 0.0 0.0  
Snow Depth 0.00 in    
Sea Level Pressure  
Sea Level Pressure 29.85 in    
Wind  
Wind Speed 8 mph (WNW)    
Max Wind Speed 20 mph    
Max Gust Speed 26 mph    
Visibility 10 miles    
Events Rain    
T = Trace of Precipitation, MM = Missing Value Source: NWS Daily Summary

Daily Weather History Graph

Daily Weather History Graph

Search for Another Location

Airport or City:

Astronomy

Sep. 24, 2019 Rise Set
Actual Time 6:53 AM EDT 6:58 PM EDT
Civil Twilight 6:25 AM EDT 7:25 PM EDT
Nautical Twilight 5:52 AM EDT 7:58 PM EDT
Astronomical Twilight 5:19 AM EDT 8:31 PM EDT
Moon 1:28 AM EDT (9/24) 4:48 PM EDT (9/24)
Length of Visible Light 13h 00m
Length of Day
12h 04m
Waning Crescent, 23% of the Moon is Illuminated
Sep 24
Waning Crescent
Sep 28
New
Oct 5
First Quarter
Oct 13
Full
Oct 21
Last Quarter

Hourly Weather History & Observations

Time (EDT) Temp. Dew Point Humidity Pressure Visibility Wind Dir Wind Speed Gust Speed Precip Events Conditions
12:53 AM 59.0 °F 55.9 °F 90% 29.82 in 10.0 mi West 10.4 mph - N/A   Overcast
1:53 AM 57.0 °F 55.0 °F 93% 29.81 in 10.0 mi West 5.8 mph - N/A   Clear
2:53 AM 55.0 °F 54.0 °F 96% 29.78 in 10.0 mi West 6.9 mph - N/A   Clear
3:53 AM 55.0 °F 54.0 °F 96% 29.78 in 10.0 mi WSW 8.1 mph - N/A   Clear
4:53 AM 55.9 °F 54.0 °F 93% 29.78 in 10.0 mi WSW 9.2 mph - N/A   Overcast
5:21 AM 55.9 °F 54.0 °F 93% 29.80 in 10.0 mi WSW 8.1 mph - N/A   Overcast
5:53 AM 55.9 °F 54.0 °F 93% 29.80 in 9.0 mi West 12.7 mph - 0.00 in Rain Light Rain
6:24 AM 55.0 °F 53.1 °F 93% 29.82 in 10.0 mi West 11.5 mph - 0.00 in   Overcast
6:33 AM 55.0 °F 53.1 °F 93% 29.82 in 10.0 mi WNW 11.5 mph - 0.00 in   Mostly Cloudy
6:39 AM 55.0 °F 53.1 °F 93% 29.82 in 10.0 mi WNW 8.1 mph - 0.00 in   Mostly Cloudy
6:46 AM 54.0 °F 53.1 °F 97% 29.82 in 10.0 mi WNW 10.4 mph - 0.00 in   Scattered Clouds
6:53 AM 54.0 °F 53.1 °F 97% 29.81 in 10.0 mi WNW 9.2 mph - 0.00 in   Scattered Clouds
7:19 AM 55.0 °F 53.1 °F 93% 29.83 in 10.0 mi WNW 6.9 mph - N/A   Mostly Cloudy
7:49 AM 55.4 °F 53.6 °F 94% 29.83 in 10.0 mi West 8.1 mph - N/A   Mostly Cloudy
7:53 AM 55.0 °F 53.1 °F 93% 29.82 in 10.0 mi West 9.2 mph - N/A   Mostly Cloudy
8:19 AM 55.0 °F 53.1 °F 93% 29.84 in 10.0 mi West 9.2 mph - N/A   Overcast
8:53 AM 55.9 °F 53.1 °F 90% 29.83 in 10.0 mi West 10.4 mph - N/A   Overcast
9:02 AM 55.9 °F 53.1 °F 90% 29.84 in 10.0 mi West 11.5 mph - N/A   Overcast
9:40 AM 57.9 °F 52.0 °F 81% 29.85 in 10.0 mi WNW 11.5 mph - N/A   Mostly Cloudy
9:53 AM 57.9 °F 51.1 °F 78% 29.85 in 10.0 mi NW 11.5 mph - N/A   Overcast
10:53 AM 59.0 °F 52.0 °F 78% 29.85 in 10.0 mi WNW 15.0 mph 21.9 mph N/A   Overcast
11:25 AM 57.0 °F 54.0 °F 89% 29.87 in 9.0 mi WNW 10.4 mph - 0.00 in Rain Light Rain
11:41 AM 57.0 °F 53.1 °F 87% 29.87 in 10.0 mi NW 12.7 mph 17.3 mph 0.00 in   Overcast
11:53 AM 57.9 °F 53.1 °F 84% 29.86 in 10.0 mi NW 11.5 mph - 0.00 in   Overcast
12:14 PM 61.0 °F 52.0 °F 72% 29.86 in 10.0 mi NW 17.3 mph 26.5 mph N/A   Mostly Cloudy
12:40 PM 62.1 °F 51.1 °F 67% 29.87 in 10.0 mi NW 11.5 mph 23.0 mph N/A   Scattered Clouds
12:53 PM 62.1 °F 50.0 °F 65% 29.86 in 10.0 mi NNW 13.8 mph - N/A   Scattered Clouds
1:12 PM 61.0 °F 48.9 °F 64% 29.87 in 10.0 mi NW 12.7 mph 23.0 mph N/A   Mostly Cloudy
1:21 PM 64.0 °F 48.9 °F 58% 29.86 in 10.0 mi NW 15.0 mph 21.9 mph N/A   Mostly Cloudy
1:53 PM 64.0 °F 48.0 °F 56% 29.86 in 10.0 mi NW 13.8 mph - N/A   Scattered Clouds
2:53 PM 63.0 °F 46.0 °F 54% 29.86 in 10.0 mi NW 9.2 mph 17.3 mph N/A   Mostly Cloudy
3:53 PM 62.1 °F 46.9 °F 58% 29.86 in 10.0 mi NW 10.4 mph - N/A   Overcast
4:53 PM 63.0 °F 46.9 °F 56% 29.86 in 10.0 mi NW 6.9 mph - N/A   Partly Cloudy
5:53 PM 61.0 °F 46.0 °F 58% 29.88 in 10.0 mi NW 6.9 mph - N/A   Scattered Clouds
7:53 PM 57.0 °F 46.9 °F 69% 29.91 in 10.0 mi NNW 3.5 mph - N/A   Overcast
8:53 PM 57.0 °F 46.9 °F 69% 29.91 in 10.0 mi North 4.6 mph - N/A   Overcast
9:53 PM 55.9 °F 46.9 °F 72% 29.91 in 10.0 mi North 4.6 mph - N/A   Clear
10:53 PM 55.0 °F 46.9 °F 74% 29.90 in 10.0 mi North 4.6 mph - N/A   Partly Cloudy
11:53 PM 53.1 °F 46.9 °F 80% 29.90 in 10.0 mi WSW 4.6 mph - N/A   Mostly Cloudy